"Platform","Muskegon M20 ReCON Buoy"
"NDBC ID","45161"
"Latitude (deg)",43.17967
"Longitude (deg)",-86.35752
"Water Depth (m)",22
"Sensor Device","System Power Controller board voltage input"
"Sensor Type","Voltage at underwater hub"
"Sensor Units","voltage"
"Measurement","A sample"
"Time means","Time at sample (UTC time zone)"

"Note:","This data was collected for research purposes."
"Note:","Minimal quality checking has been performed so data may contain known or unknown errors."
"Note:","Data provided by NOAA. Please credit NOAA."
"Note:","For more info see www.glerl.noaa.gov/res/recon"

"Time (UTC)","U/W Hub"
"YYYY/MM/DD HH:MM","volts"
2016/05/02 18:17, 48.94
2016/05/02 18:37, 51.02
2016/05/02 18:57, 50.96
2016/05/02 19:17, 48.45
2016/05/02 19:37, 50.74
2016/05/02 19:57, 49.54
2016/05/02 20:17, 50.10
2016/05/02 20:37, 51.16
2016/05/02 20:57, 50.86
2016/05/02 21:17, 49.84
2016/05/02 21:37, 51.19
2016/05/02 21:57, 51.17
2016/05/02 22:17, 51.17
2016/05/02 22:37, 51.18
2016/05/02 22:57, 51.15
2016/05/02 23:17, 51.15
2016/05/02 23:37, 50.82
2016/05/02 23:57, 51.12
2016/05/03 00:17, 51.11
2016/05/03 00:37, 51.13
2016/05/03 00:57, 51.11
2016/05/03 01:17, 51.13
2016/05/03 01:37, 51.12
2016/05/03 01:57, 51.13
2016/05/03 02:17, 51.12
2016/05/03 02:37, 51.11
2016/05/03 02:57, 51.13
2016/05/03 03:17, 51.14
2016/05/03 03:37, 51.13
2016/05/03 03:57, 51.13
2016/05/03 04:17, 51.13
2016/05/03 04:37, 51.11
2016/05/03 04:57, 51.13
2016/05/03 05:17, 51.12
2016/05/03 05:37, 51.12
2016/05/03 05:57, 51.14
2016/05/03 06:17, 51.14
2016/05/03 06:37, 51.10
2016/05/03 06:57, 51.13
2016/05/03 07:17, 51.13
2016/05/03 07:37, 51.13
2016/05/03 07:57, 51.13
2016/05/03 08:17, 51.12
2016/05/03 08:37, 51.11
2016/05/03 08:57, 51.13
2016/05/03 09:17, 51.12
2016/05/03 09:37, 51.12
2016/05/03 09:57, 51.13
2016/05/03 10:17, 51.12
2016/05/03 10:37, 51.11
2016/05/03 10:57, 51.19
2016/05/03 11:17, 50.06
2016/05/03 11:37, 47.54
2016/05/03 11:57, 47.75
2016/05/03 12:17, 47.05
2016/05/03 12:37, 48.76
2016/05/03 12:57, 46.88
2016/05/03 13:17, 46.89
2016/05/03 13:37, 46.32
2016/05/03 13:57, 46.04
2016/05/03 14:17, 45.78
2016/05/03 14:37, 48.27
2016/05/03 14:57, 46.55
2016/05/03 15:17, 46.68
2016/05/03 15:37, 46.69
2016/05/03 15:57, 46.92
2016/05/03 16:17, 47.08
2016/05/03 16:37, 49.08
2016/05/03 16:57, 47.27
2016/05/03 17:17, 47.61
2016/05/03 17:37, 47.25
2016/05/03 17:57, 47.45
2016/05/03 18:17, 47.39
2016/05/03 18:37, 48.65
2016/05/03 18:57, 46.94
2016/05/03 19:17, 46.78
2016/05/03 19:37, 46.33
2016/05/03 19:57, 45.73
2016/05/03 20:17, 44.61
2016/05/03 20:37, 49.66
2016/05/03 20:57, 44.26
2016/05/03 21:17, 47.89
2016/05/03 21:37, 47.41
2016/05/03 21:57, 48.18
2016/05/03 22:17, 50.20
2016/05/03 22:37, 51.17
2016/05/03 22:57, 51.16
2016/05/03 23:17, 51.16
2016/05/03 23:37, 51.12
2016/05/03 23:57, 51.15
2016/05/04 00:17, 51.14
2016/05/04 00:37, 51.12
2016/05/04 00:57, 51.13
2016/05/04 01:17, 51.14
2016/05/04 01:37, 51.14
2016/05/04 01:57, 51.13
2016/05/04 02:17, 51.14
2016/05/04 02:37, 51.11
2016/05/04 02:57, 51.13
2016/05/04 03:17, 51.13
2016/05/04 03:37, 51.13
2016/05/04 03:57, 51.14
2016/05/04 04:17, 51.13
2016/05/04 04:37, 51.12
2016/05/04 04:57, 51.13
2016/05/04 05:17, 51.14
2016/05/04 05:37, 51.13
2016/05/04 05:57, 51.14
2016/05/04 06:17, 51.14
2016/05/04 06:37, 51.11
2016/05/04 06:57, 51.13
2016/05/04 07:17, 51.12
2016/05/04 07:37, 51.13
2016/05/04 07:57, 51.14
2016/05/04 08:17, 51.13
2016/05/04 08:37, 51.11
2016/05/04 08:57, 51.13
2016/05/04 09:17, 51.12
2016/05/04 09:37, 51.13
2016/05/04 09:57, 51.14
2016/05/04 10:17, 51.12
2016/05/04 10:37, 51.10
2016/05/04 10:57, 51.12
2016/05/04 11:17, 51.12
2016/05/04 11:37, 51.12
2016/05/04 11:57, 51.13
2016/05/04 12:17, 51.13
2016/05/04 12:37, 51.11
2016/05/04 12:57, 51.14
2016/05/04 13:17, 51.15
2016/05/04 13:37, 51.15
2016/05/04 13:57, 51.15
2016/05/04 14:17, 51.16
2016/05/04 14:37, 51.15
2016/05/04 14:57, 51.13
2016/05/04 15:17, 51.14
2016/05/04 15:37, 51.16
2016/05/04 15:57, 51.17
2016/05/04 16:17, 51.16
2016/05/04 16:37, 51.15
2016/05/04 16:57, 51.17
2016/05/04 17:17, 51.19
2016/05/04 17:37, 51.17
2016/05/04 17:57, 51.17
2016/05/04 18:17, 51.17
2016/05/04 18:37, 51.15
2016/05/04 18:57, 51.16
2016/05/04 19:17, 51.19
2016/05/04 19:37, 51.18
2016/05/04 19:57, 51.17
2016/05/04 20:17, 51.17
2016/05/04 20:37, 51.15
2016/05/04 20:57, 51.16
2016/05/04 21:17, 51.15
2016/05/04 21:37, 51.15
2016/05/04 21:57, 51.14
2016/05/04 22:17, 51.14
2016/05/04 22:37, 51.12
2016/05/04 22:57, 51.15
2016/05/04 23:17, 51.14
2016/05/04 23:37, 51.12
2016/05/04 23:57, 51.13
2016/05/05 00:17, 51.13
2016/05/05 00:37, 51.11
2016/05/05 00:57, 51.12
2016/05/05 01:17, 51.14
2016/05/05 01:37, 51.12
2016/05/05 01:57, 51.13
2016/05/05 02:17, 51.12
2016/05/05 02:37, 51.10
2016/05/05 02:57, 51.13
2016/05/05 03:17, 51.12
2016/05/05 03:37, 51.13
2016/05/05 03:57, 51.12
2016/05/05 04:17, 51.12
2016/05/05 04:37, 51.10
2016/05/05 04:57, 51.13
2016/05/05 05:17, 51.12
2016/05/05 05:37, 51.12
2016/05/05 05:57, 51.12
2016/05/05 06:17, 51.13
2016/05/05 10:57, 51.14
2016/05/05 11:17, 51.19
2016/05/05 11:37, 50.95
2016/05/05 11:57, 49.30
2016/05/05 12:17, 48.11
2016/05/05 12:37, 49.17
2016/05/05 12:57, 46.62
2016/05/05 13:17, 46.26
2016/05/05 13:37, 46.69
2016/05/05 13:57, 45.90
2016/05/05 14:17, 46.39
2016/05/05 14:37, 48.34
2016/05/05 14:57, 45.83
2016/05/05 15:17, 46.76
2016/05/05 15:37, 47.55
2016/05/05 15:57, 47.60
2016/05/05 16:17, 47.56
2016/05/05 16:37, 49.73
2016/05/05 16:57, 48.58
2016/05/05 17:17, 49.97
2016/05/05 17:37, 49.74
2016/05/05 17:57, 49.85
2016/05/05 18:17, 49.50
2016/05/05 18:37, 49.61
2016/05/05 18:57, 49.08
2016/05/05 19:17, 48.95
2016/05/05 19:37, 48.73
2016/05/05 19:57, 48.13
2016/05/05 20:17, 46.47
2016/05/05 20:37, 45.64
2016/05/05 20:57, 46.01
2016/05/05 21:17, 45.65
2016/05/05 21:37, 45.42
2016/05/05 21:57, 45.32
2016/05/05 22:17, 45.17
2016/05/05 22:37, 45.87
2016/05/05 22:57, 45.33
2016/05/05 23:17, 47.53
2016/05/05 23:37, 48.27
2016/05/05 23:57, 50.41
2016/05/06 00:17, 51.19
2016/05/06 00:37, 51.17
2016/05/06 00:57, 51.14
2016/05/06 01:17, 51.14
2016/05/06 01:37, 51.14
2016/05/06 01:57, 51.13
2016/05/06 02:17, 51.13
2016/05/06 02:37, 51.13
2016/05/06 02:57, 51.14
2016/05/06 03:17, 51.14
2016/05/06 03:37, 51.13
2016/05/06 03:57, 51.13
2016/05/06 04:17, 51.13
2016/05/06 04:37, 51.13
2016/05/06 04:57, 51.14
2016/05/06 05:17, 51.15
2016/05/06 05:37, 51.14
2016/05/06 05:57, 51.14
2016/05/06 06:17, 51.14
2016/05/06 06:37, 51.13
2016/05/06 06:57, 51.13
2016/05/06 07:17, 51.13
2016/05/06 07:37, 51.13
2016/05/06 07:57, 51.13
2016/05/06 08:17, 51.13
2016/05/06 08:37, 51.13
2016/05/06 08:57, 51.14
2016/05/06 09:17, 51.13
2016/05/06 09:37, 51.13
2016/05/06 09:57, 51.14
2016/05/06 10:17, 51.13
2016/05/06 10:37, 51.14
2016/05/06 10:57, 51.15
2016/05/06 11:17, 51.18
2016/05/06 11:37, 51.19
2016/05/06 11:57, 51.20
2016/05/06 12:17, 51.18
2016/05/06 12:37, 49.49
2016/05/06 12:57, 46.93
2016/05/06 13:17, 45.69
2016/05/06 13:37, 45.39
2016/05/06 13:57, 45.04
2016/05/06 14:17, 45.34
2016/05/06 14:37, 47.62
2016/05/06 14:57, 45.65
2016/05/06 15:17, 45.67
2016/05/06 15:37, 46.47
2016/05/06 15:57, 46.47
2016/05/06 16:17, 46.93
2016/05/06 16:37, 46.81
2016/05/06 16:57, 46.81
2016/05/06 17:17, 47.17
2016/05/06 17:37, 47.02
2016/05/06 17:57, 46.86
2016/05/06 18:17, 47.86
2016/05/06 18:37, 48.17
2016/05/06 18:57, 47.02
2016/05/06 19:17, 46.64
2016/05/06 19:37, 46.43
2016/05/06 19:57, 46.62
2016/05/06 20:17, 46.61
2016/05/06 20:37, 45.92
2016/05/06 20:57, 46.54
2016/05/06 21:17, 46.71
2016/05/06 21:37, 46.50
2016/05/06 21:57, 46.51
2016/05/06 22:17, 45.98
2016/05/06 22:37, 47.05
2016/05/06 22:57, 47.52
2016/05/06 23:17, 47.98
2016/05/06 23:37, 48.21
2016/05/06 23:57, 49.13
2016/05/07 00:17, 50.64
2016/05/07 00:37, 51.16
2016/05/07 00:57, 51.13
2016/05/07 01:17, 51.13
2016/05/07 01:37, 51.13
2016/05/07 01:57, 51.14
2016/05/07 02:17, 51.14
2016/05/07 02:37, 51.14
2016/05/07 02:57, 51.14
2016/05/07 03:17, 51.14
2016/05/07 03:37, 51.14
2016/05/07 03:57, 51.13
2016/05/07 04:17, 51.13
2016/05/07 04:37, 51.14
2016/05/07 04:57, 51.13
2016/05/07 05:17, 51.13
2016/05/07 05:37, 51.13
2016/05/07 05:57, 51.14
2016/05/07 06:17, 51.13
2016/05/07 06:37, 51.13
2016/05/07 06:57, 51.13
2016/05/07 07:17, 51.13
2016/05/07 07:37, 51.15
2016/05/07 07:57, 51.13
2016/05/07 08:17, 51.14
2016/05/07 08:37, 51.13
2016/05/07 08:57, 51.13
2016/05/07 09:17, 51.14
2016/05/07 09:37, 51.13
2016/05/07 09:57, 51.13
2016/05/07 10:17, 51.12
2016/05/07 10:37, 51.13
2016/05/07 10:57, 51.14
2016/05/07 11:17, 51.15
2016/05/07 11:37, 51.17
2016/05/07 11:57, 51.18
2016/05/07 12:17, 51.20
2016/05/07 12:37, 51.18
2016/05/07 12:57, 51.20
2016/05/07 13:17, 51.21
2016/05/07 13:37, 51.18
2016/05/07 13:57, 50.15
2016/05/07 14:17, 47.04
2016/05/07 14:37, 49.16
2016/05/07 14:57, 46.23
2016/05/07 15:17, 46.07
2016/05/07 15:37, 47.02
2016/05/07 15:57, 46.45
2016/05/07 16:17, 47.40
2016/05/07 16:37, 49.20
2016/05/07 16:57, 47.44
2016/05/07 17:17, 47.22
2016/05/07 17:37, 47.76
2016/05/07 17:57, 47.16
2016/05/07 18:17, 47.17
2016/05/07 18:37, 48.30
2016/05/07 18:57, 47.00
2016/05/07 19:17, 46.66
2016/05/07 19:37, 46.25
2016/05/07 19:57, 45.93
2016/05/07 20:17, 45.95
2016/05/07 20:37, 47.97
2016/05/07 20:57, 46.16
2016/05/07 21:17, 46.70
2016/05/07 21:37, 46.61
2016/05/07 21:57, 46.95
2016/05/07 22:17, 47.07
2016/05/07 22:37, 48.57
2016/05/07 22:57, 45.87
2016/05/07 23:17, 45.94
2016/05/07 23:37, 48.09
2016/05/07 23:57, 47.74
2016/05/08 00:17, 51.18
2016/05/08 00:37, 51.17
2016/05/08 00:57, 51.15
2016/05/08 01:17, 51.15
2016/05/08 01:37, 51.16
2016/05/08 01:57, 51.13
2016/05/08 02:17, 51.14
2016/05/08 02:37, 51.13
2016/05/08 02:57, 51.14
2016/05/08 03:17, 51.15
2016/05/08 03:37, 51.14
2016/05/08 03:57, 51.13
2016/05/08 04:17, 51.14
2016/05/08 04:37, 51.14
2016/05/08 04:57, 51.13
2016/05/08 05:17, 51.14
2016/05/08 05:37, 51.14
2016/05/08 05:57, 51.13
2016/05/08 06:17, 51.14
2016/05/08 06:37, 51.13
2016/05/08 06:57, 51.13
2016/05/08 07:17, 51.13
2016/05/08 07:37, 51.14
2016/05/08 07:57, 51.14
2016/05/08 08:17, 51.13
2016/05/08 08:37, 51.13
2016/05/08 08:57, 51.13
2016/05/08 09:17, 51.14
2016/05/08 09:37, 51.13
2016/05/08 09:57, 51.13
2016/05/08 10:17, 51.14
2016/05/08 10:37, 51.14
2016/05/08 10:57, 50.64
2016/05/08 11:17, 51.15
2016/05/08 11:37, 51.19
2016/05/08 11:57, 48.60
2016/05/08 12:17, 51.19
2016/05/08 12:37, 47.77
2016/05/08 12:57, 45.79
2016/05/08 13:17, 45.91
2016/05/08 13:37, 45.36
2016/05/08 13:57, 47.93
2016/05/08 14:17, 48.77
2016/05/08 14:37, 50.03
2016/05/08 14:57, 45.67
2016/05/08 15:17, 45.51
2016/05/08 15:37, 45.36
2016/05/08 15:57, 45.75
2016/05/08 16:17, 46.77
2016/05/08 16:37, 46.81
2016/05/08 16:57, 46.62
2016/05/08 17:17, 47.36
2016/05/08 17:37, 47.10
2016/05/08 17:57, 47.10
2016/05/08 18:17, 46.89
2016/05/08 18:37, 48.49
2016/05/08 18:57, 47.31
2016/05/08 19:17, 46.56
2016/05/08 19:37, 46.01
2016/05/08 19:57, 46.34
2016/05/08 20:17, 45.93
2016/05/08 20:37, 46.26
2016/05/08 20:57, 45.92
2016/05/08 21:17, 45.79
2016/05/08 21:37, 46.13
2016/05/08 21:57, 46.55
2016/05/08 22:17, 46.44
2016/05/08 22:37, 46.89
2016/05/08 22:57, 46.34
2016/05/08 23:17, 45.96
2016/05/08 23:37, 47.40
2016/05/08 23:57, 49.12
2016/05/09 00:17, 51.19
2016/05/09 00:37, 51.16
2016/05/09 00:57, 51.14
2016/05/09 01:17, 51.13
2016/05/09 01:37, 51.13
2016/05/09 01:57, 51.13
2016/05/09 02:17, 51.13
2016/05/09 02:37, 51.15
2016/05/09 02:57, 51.13
2016/05/09 03:17, 51.14
2016/05/09 03:37, 51.14
2016/05/09 03:57, 51.13
2016/05/09 04:17, 51.14
2016/05/09 04:37, 51.13
2016/05/09 04:57, 51.12
2016/05/09 05:17, 51.13
2016/05/09 05:37, 51.14
2016/05/09 05:57, 51.13
2016/05/09 06:17, 51.13
2016/05/09 06:37, 51.13
2016/05/09 06:57, 51.13
2016/05/09 07:17, 51.13
2016/05/09 07:37, 51.13
2016/05/09 07:57, 51.13
2016/05/09 08:17, 51.13
2016/05/09 08:37, 51.13
2016/05/09 08:57, 51.13
2016/05/09 09:17, 51.12
2016/05/09 09:37, 51.13
2016/05/09 09:57, 51.14
2016/05/09 10:17, 51.13
2016/05/09 10:37, 51.14
2016/05/09 10:57, 51.14
2016/05/09 11:17, 51.17
2016/05/09 11:37, 51.19
2016/05/09 11:57, 51.18
2016/05/09 12:17, 50.51
2016/05/09 12:37, 49.04
2016/05/09 12:57, 48.16
2016/05/09 13:17, 48.35
2016/05/09 13:37, 48.23
2016/05/09 13:57, 49.75
2016/05/09 14:17, 45.75
2016/05/09 14:37, 47.60
2016/05/09 14:57, 45.12
2016/05/09 15:17, 45.78
2016/05/09 15:37, 45.62
2016/05/09 15:57, 46.89
2016/05/09 16:17, 45.86
2016/05/09 16:37, 46.89
2016/05/09 16:57, 46.21
2016/05/09 17:17, 47.15
2016/05/09 17:37, 46.66
2016/05/09 17:57, 46.33
2016/05/09 18:17, 46.37
2016/05/09 18:37, 47.99
2016/05/09 18:57, 46.45
2016/05/09 19:17, 46.50
2016/05/09 19:37, 46.74
2016/05/09 19:57, 47.22
2016/05/09 20:17, 47.09
2016/05/09 20:37, 47.72
2016/05/09 20:57, 47.64
2016/05/09 21:17, 48.44
2016/05/09 21:37, 50.29
2016/05/09 21:57, 50.49
2016/05/09 22:17, 51.08
2016/05/09 22:37, 50.33
2016/05/09 22:57, 48.57
2016/05/09 23:17, 48.99
2016/05/09 23:37, 50.45
2016/05/09 23:57, 51.17
2016/05/10 00:17, 51.16
2016/05/10 00:37, 51.13
2016/05/10 00:57, 51.13
2016/05/10 01:17, 51.14
2016/05/10 01:37, 51.14
2016/05/10 01:57, 51.13
2016/05/10 02:17, 51.13
2016/05/10 02:37, 51.14
2016/05/10 02:57, 51.13
2016/05/10 03:17, 51.14
2016/05/10 03:37, 51.13
2016/05/10 03:57, 51.14
2016/05/10 04:17, 51.13
2016/05/10 04:37, 51.12
2016/05/10 04:57, 51.13
2016/05/10 05:17, 51.13
2016/05/10 05:37, 51.13
2016/05/10 05:57, 51.13
2016/05/10 06:17, 51.12
2016/05/10 06:37, 51.13
2016/05/10 06:57, 51.13
2016/05/10 07:17, 51.13
2016/05/10 07:37, 51.13
2016/05/10 07:57, 51.12
2016/05/10 08:17, 51.12
2016/05/10 08:37, 51.13
2016/05/10 08:57, 51.13
2016/05/10 09:17, 51.12
2016/05/10 09:37, 51.13
2016/05/10 09:57, 51.13
2016/05/10 10:17, 51.13
2016/05/10 10:37, 51.13
2016/05/10 10:57, 51.13
2016/05/10 11:17, 51.12
2016/05/10 11:37, 51.14
2016/05/10 11:57, 51.14
2016/05/10 12:17, 51.14
2016/05/10 12:37, 51.17
2016/05/10 12:57, 51.18
2016/05/10 13:17, 51.18
2016/05/10 13:37, 51.18
2016/05/10 13:57, 51.18
2016/05/10 14:17, 51.18
2016/05/10 14:37, 51.16
2016/05/10 14:57, 51.17
2016/05/10 15:17, 51.16
2016/05/10 15:37, 51.17
2016/05/10 15:57, 51.16
2016/05/10 16:17, 51.16
2016/05/10 16:37, 51.16
2016/05/10 16:57, 51.16
2016/05/10 17:17, 51.16
2016/05/10 17:37, 51.15
2016/05/10 17:57, 51.14
2016/05/10 18:17, 51.15
2016/05/10 18:37, 51.12
2016/05/10 18:57, 51.15
2016/05/10 19:17, 51.15
2016/05/10 19:37, 51.15
2016/05/10 19:57, 51.15
2016/05/10 20:17, 51.14
2016/05/10 20:37, 51.16
2016/05/10 20:57, 51.15
2016/05/10 21:17, 51.14
2016/05/10 21:37, 51.14
2016/05/10 21:57, 51.15
2016/05/10 22:17, 51.17
2016/05/10 22:37, 51.15
2016/05/10 22:57, 51.16
2016/05/10 23:17, 51.15
2016/05/10 23:37, 51.15
2016/05/10 23:57, 51.14
2016/05/11 00:17, 51.13
2016/05/11 00:37, 51.13
2016/05/11 00:57, 51.13
2016/05/11 01:17, 51.12
2016/05/11 01:37, 51.13
2016/05/11 01:57, 51.13
2016/05/11 02:17, 51.13
2016/05/11 02:37, 51.12
2016/05/11 02:57, 51.12
2016/05/11 03:17, 51.12
2016/05/11 03:37, 51.12
2016/05/11 03:57, 51.12
2016/05/11 04:17, 51.12
2016/05/11 04:37, 51.13
2016/05/11 04:57, 51.13
2016/05/11 05:17, 51.13
2016/05/11 05:37, 51.12
2016/05/11 05:57, 51.13
2016/05/11 06:17, 51.12
2016/05/11 06:37, 51.12
2016/05/11 06:57, 51.12
2016/05/11 07:17, 51.11
2016/05/11 07:37, 51.12
2016/05/11 07:57, 51.13
2016/05/11 08:17, 51.12
2016/05/11 08:37, 51.13
2016/05/11 08:57, 51.14
2016/05/11 09:17, 51.13
2016/05/11 09:37, 51.12
2016/05/11 09:57, 51.12
2016/05/11 10:17, 51.12
2016/05/11 10:37, 51.12
2016/05/11 10:57, 51.13
2016/05/11 11:17, 51.18
2016/05/11 11:37, 51.16
2016/05/11 11:57, 51.17
2016/05/11 12:17, 51.17
2016/05/11 12:37, 51.19
2016/05/11 12:57, 51.17
2016/05/11 13:17, 51.17
2016/05/11 13:37, 51.18
2016/05/11 13:57, 51.17
2016/05/11 14:17, 51.19
2016/05/11 14:37, 51.18
2016/05/11 14:57, 50.73
2016/05/11 15:17, 49.63
2016/05/11 15:37, 49.31
2016/05/11 15:57, 46.97
2016/05/11 16:17, 47.66
2016/05/11 16:37, 47.57
2016/05/11 16:57, 47.43
2016/05/11 17:17, 47.47
2016/05/11 17:37, 47.17
2016/05/11 17:57, 47.13
2016/05/11 18:17, 46.87
2016/05/11 18:37, 49.10
2016/05/11 18:57, 46.95
2016/05/11 19:17, 47.23
2016/05/11 19:37, 46.65
2016/05/11 19:57, 45.78
2016/05/11 20:17, 46.34
2016/05/11 20:37, 45.30
2016/05/11 20:57, 49.22
2016/05/11 21:17, 44.95
2016/05/11 21:37, 46.65
2016/05/11 21:57, 49.67
2016/05/11 22:17, 46.23
2016/05/11 22:37, 48.74
2016/05/11 22:57, 47.46
2016/05/11 23:17, 47.71
2016/05/11 23:37, 49.31
2016/05/11 23:57, 50.36
2016/05/12 00:17, 51.14
2016/05/12 00:37, 51.13
2016/05/12 00:57, 51.14
2016/05/12 01:17, 51.13
2016/05/12 01:37, 51.14
2016/05/12 01:57, 51.14
2016/05/12 02:17, 51.14
2016/05/12 02:37, 51.13
2016/05/12 02:57, 51.14
2016/05/12 03:17, 51.14
2016/05/12 03:37, 51.14
2016/05/12 03:57, 51.13
2016/05/12 04:17, 51.13
2016/05/12 04:37, 51.13
2016/05/12 04:57, 51.13
2016/05/12 05:17, 51.13
2016/05/12 05:37, 51.13
2016/05/12 05:57, 51.13
2016/05/12 06:17, 51.13
2016/05/12 06:37, 51.14
2016/05/12 06:57, 51.13
2016/05/12 07:17, 51.13
2016/05/12 07:37, 51.12
2016/05/12 07:57, 51.13
2016/05/12 08:17, 51.13
2016/05/12 08:37, 51.12
2016/05/12 08:57, 51.13
2016/05/12 09:17, 51.13
2016/05/12 09:37, 51.12
2016/05/12 09:57, 51.12
2016/05/12 10:17, 51.13
2016/05/12 10:37, 51.12
2016/05/12 10:57, 51.12
2016/05/12 11:17, 51.12
2016/05/12 11:37, 51.11
2016/05/12 11:57, 51.14
2016/05/12 12:17, 51.13
2016/05/12 12:37, 51.13
2016/05/12 12:57, 51.17
2016/05/12 13:17, 51.18
2016/05/12 13:37, 49.31
2016/05/12 13:57, 47.54
2016/05/12 14:17, 48.75
2016/05/12 14:37, 48.27
2016/05/12 14:57, 48.16
2016/05/12 15:17, 48.68
2016/05/12 15:37, 50.33
2016/05/12 15:57, 49.74
2016/05/12 16:17, 51.00
2016/05/12 16:37, 49.43
2016/05/12 16:57, 48.26
2016/05/12 17:17, 47.21
2016/05/12 17:37, 51.18
2016/05/12 17:57, 51.17
2016/05/12 18:17, 51.16
2016/05/12 18:37, 51.13
2016/05/12 18:57, 51.16
2016/05/12 19:17, 51.14
2016/05/12 19:37, 51.16
2016/05/12 19:57, 51.16
2016/05/12 20:17, 51.14
2016/05/12 20:37, 51.16
2016/05/12 20:57, 50.41
2016/05/12 21:17, 49.80
2016/05/12 21:37, 50.31
2016/05/12 21:57, 50.92
2016/05/12 22:17, 49.29
2016/05/12 22:37, 49.87
2016/05/12 22:57, 49.83
2016/05/12 23:17, 50.07
2016/05/12 23:37, 50.92
2016/05/12 23:57, 51.19
2016/05/13 00:17, 51.15
2016/05/13 00:37, 51.15
2016/05/13 00:57, 51.14
2016/05/13 01:17, 51.14
2016/05/13 01:37, 51.14
2016/05/13 01:57, 51.13
2016/05/13 02:17, 51.14
2016/05/13 02:37, 51.14
2016/05/13 02:57, 51.13
2016/05/13 03:17, 51.14
2016/05/13 03:37, 51.13
2016/05/13 03:57, 51.14
2016/05/13 04:17, 51.13
2016/05/13 04:37, 51.13
2016/05/13 04:57, 51.13
2016/05/13 05:17, 51.12
2016/05/13 05:37, 51.14
2016/05/13 05:57, 51.13
2016/05/13 06:17, 51.13
2016/05/13 06:37, 51.13
2016/05/13 06:57, 51.13
2016/05/13 07:17, 51.13
2016/05/13 07:37, 51.13
2016/05/13 07:57, 51.13
2016/05/13 08:17, 51.13
2016/05/13 08:37, 51.14
2016/05/13 08:57, 51.12
2016/05/13 09:17, 51.13
2016/05/13 09:37, 51.13
2016/05/13 09:57, 51.12
2016/05/13 10:17, 51.13
2016/05/13 10:37, 51.13
2016/05/13 10:57, 51.14
2016/05/13 11:17, 51.14
2016/05/13 11:37, 49.37
2016/05/13 11:57, 46.95
2016/05/13 12:17, 51.06
2016/05/13 12:37, 51.20
2016/05/13 12:57, 45.71
2016/05/13 13:17, 45.99
2016/05/13 13:37, 44.68
2016/05/13 13:57, 47.11
2016/05/13 14:17, 48.78
2016/05/13 14:37, 48.10
2016/05/13 14:57, 46.23
2016/05/13 15:17, 46.83
2016/05/13 15:37, 46.82
2016/05/13 15:57, 46.48
2016/05/13 16:17, 47.01
2016/05/13 16:37, 46.95
2016/05/13 16:57, 48.48
2016/05/13 17:17, 47.79
2016/05/13 17:37, 47.01
2016/05/13 17:57, 47.28
2016/05/13 18:17, 47.03
2016/05/13 18:37, 48.79
2016/05/13 18:57, 46.83
2016/05/13 19:17, 47.50
2016/05/13 19:37, 49.49
2016/05/13 19:57, 50.05
2016/05/13 20:17, 49.96
2016/05/13 20:37, 51.12
2016/05/13 20:57, 51.17
2016/05/13 21:17, 51.16
2016/05/13 21:37, 51.15
2016/05/13 21:57, 51.15
2016/05/13 22:17, 51.14
2016/05/13 22:37, 51.15
2016/05/13 22:57, 51.14
2016/05/13 23:17, 51.14
2016/05/13 23:37, 51.14
2016/05/13 23:57, 51.13
2016/05/14 00:17, 51.13
2016/05/14 00:37, 51.14
2016/05/14 00:57, 51.14
2016/05/14 01:17, 51.15
2016/05/14 01:37, 51.13
2016/05/14 01:57, 51.14
2016/05/14 02:17, 51.14
2016/05/14 02:37, 51.14
2016/05/14 02:57, 51.14
2016/05/14 03:17, 51.14
2016/05/14 03:37, 51.15
2016/05/14 03:57, 51.13
2016/05/14 04:17, 51.13
2016/05/14 04:37, 51.14
2016/05/14 04:57, 51.13
2016/05/14 05:17, 51.13
2016/05/14 05:37, 51.13
2016/05/14 05:57, 51.14
2016/05/14 06:17, 51.13
2016/05/14 06:37, 51.13
2016/05/14 06:57, 51.13
2016/05/14 07:17, 51.13
2016/05/14 07:37, 51.13
2016/05/14 07:57, 51.12
2016/05/14 08:17, 51.13
2016/05/14 08:37, 51.13
2016/05/14 08:57, 51.13
2016/05/14 09:17, 51.12
2016/05/14 09:37, 51.12
2016/05/14 09:57, 51.13
2016/05/14 10:17, 51.14
2016/05/14 10:37, 51.12
2016/05/14 10:57, 51.13
2016/05/14 11:17, 51.13
2016/05/14 11:37, 51.14
2016/05/14 11:57, 51.14
2016/05/14 12:17, 51.15
2016/05/14 12:37, 51.16
2016/05/14 12:57, 51.16
2016/05/14 13:17, 51.17
2016/05/14 13:37, 50.51
2016/05/14 13:57, 51.20
2016/05/14 14:17, 51.18
2016/05/14 14:37, 51.19
2016/05/14 14:57, 51.20
2016/05/14 15:17, 47.40
2016/05/14 15:37, 50.30
2016/05/14 15:57, 48.16
2016/05/14 16:17, 46.62
2016/05/14 16:37, 50.42
2016/05/14 16:57, 47.38
2016/05/14 17:17, 46.53
2016/05/14 17:37, 50.89
2016/05/14 17:57, 45.93
2016/05/14 18:17, 48.69
2016/05/14 18:37, 49.35
2016/05/14 18:57, 48.01
2016/05/14 19:17, 48.53
2016/05/14 19:37, 49.73
2016/05/14 19:57, 47.05
2016/05/14 20:17, 46.43
2016/05/14 20:37, 48.07
2016/05/14 20:57, 46.73
2016/05/14 21:17, 49.65
2016/05/14 21:37, 45.22
2016/05/14 21:57, 50.01
2016/05/14 22:17, 51.19
2016/05/14 22:37, 51.18
2016/05/14 22:57, 51.14
2016/05/14 23:17, 51.15
2016/05/14 23:37, 51.15
2016/05/14 23:57, 51.14
2016/05/15 00:17, 51.13
2016/05/15 00:37, 51.12
2016/05/15 00:57, 51.13
2016/05/15 01:17, 51.12
2016/05/15 01:37, 51.12
2016/05/15 01:57, 51.13
2016/05/15 02:17, 51.12
2016/05/15 02:37, 51.12
2016/05/15 02:57, 51.12
2016/05/15 03:17, 51.13
2016/05/15 03:37, 51.12
2016/05/15 03:57, 51.12
2016/05/15 04:17, 51.12
2016/05/15 04:37, 51.11
2016/05/15 04:57, 51.11
2016/05/15 05:17, 51.12
2016/05/15 05:37, 51.12
2016/05/15 05:57, 51.12
2016/05/15 06:17, 51.12
2016/05/15 06:37, 51.11
2016/05/15 06:57, 51.12
2016/05/15 07:17, 51.11
2016/05/15 07:37, 51.11
2016/05/15 07:57, 51.11
2016/05/15 08:17, 51.11
2016/05/15 08:37, 51.11
2016/05/15 08:57, 51.12
2016/05/15 09:17, 51.11
2016/05/15 09:37, 51.12
2016/05/15 09:57, 51.11
2016/05/15 10:17, 51.11
2016/05/15 10:37, 51.11
2016/05/15 10:57, 51.11
2016/05/15 11:17, 51.13
2016/05/15 11:37, 51.12
2016/05/15 11:57, 51.15
2016/05/15 12:17, 51.15
2016/05/15 12:37, 51.19
2016/05/15 12:57, 51.19
2016/05/15 13:17, 51.19
2016/05/15 13:37, 49.00
2016/05/15 13:57, 48.25
2016/05/15 14:17, 48.87
2016/05/15 14:37, 48.33
2016/05/15 14:57, 48.28
2016/05/15 15:17, 48.32
2016/05/15 15:37, 47.76
2016/05/15 15:57, 48.60
2016/05/15 16:17, 48.54
2016/05/15 16:37, 48.90
2016/05/15 16:57, 48.50
2016/05/15 17:17, 48.51
2016/05/15 17:37, 49.07
2016/05/15 17:57, 48.41
2016/05/15 18:17, 48.11
2016/05/15 18:37, 49.18
2016/05/15 18:57, 47.04
2016/05/15 19:17, 46.91
2016/05/15 19:37, 46.76
2016/05/15 19:57, 46.77
2016/05/15 20:17, 46.74
2016/05/15 20:37, 45.95
2016/05/15 20:57, 45.53
2016/05/15 21:17, 45.26